User: anonymous   Login
Location: Petruro
(41.0333°N, 14.7833°E)
Time: 00:19:37
(UTC+00:00)
Language:

NPP - Orbit

View from above orbital plane
View from above orbital plane
View from above satellite
View from above satellite

Ground track
Ground track

The orbit data is extracted from the following two-line orbital elements,

1 37849U 11061A   21262.81462788  .00000004  00000-0  22550-4 0  9999
2 37849  98.7412 200.2461 0001415  69.8472 315.6758 14.19543173512793
Epoch (UTC): 19 September 2021 19:33:03
Eccentricity: 0.0001415
inclination: 98.7412°
perigee height: 826 km
apogee height: 828 km
right ascension of ascending node: 200.2461°
argument of perigee: 69.8472°
revolutions per day: 14.19543173
mean anomaly at epoch: 315.6758°
orbit number at epoch: 51279

The dashed part of the orbit path shows where the satellite is in the earth's shadow,  

DLR